Wind_Speed
33 32 35 40 40 35 32 34 36 38 39 39 39 39 39 39 41 43 42 40 38 35 36 38 38 39 42 42 42 42 42 43 45 46 47 47 48 50 52 54 55 55 56 56 57 57 57 58 58 58 58 59 59 59 60 60 61 61 62 63 63 64 64 65 66 67 68 69 69 69 69 69 69 70 70 70 71 72 72 73 73 74 75 75 75 76
35 34 39 43 39 35 36 38 40 40 40 39 38 37 37 38 39 40 38 37 36 34 35 38 38 40 43 43 44 45 45 47 48 48 49 50 51 54 55 56 56 57 57 58 58 58 58 58 57 58 58 58 59 60 61 62 62 63 64 65 66 66 67 67 68 69 70 71 72 73 73 73 73 73 73 73 73 74 74 75 75 76 76 77 77 78
36 37 43 43 38 38 40 41 40 39 38 38 37 35 35 36 36 35 36 35 34 33 34 37 38 42 45 46 46 47 47 49 48 48 49 51 53 55 55 55 56 57 58 58 59 58 58 58 58 58 57 58 58 59 60 62 63 64 65 67 68 69 70 71 71 72 72 73 74 75 76 76 77 77 77 77 77 77 77 77 77 77 78 78 79 80
37 40 45 43 40 41 41 40 40 39 38 38 37 35 35 36 34 33 34 34 32 32 33 35 36 39 43 44 44 45 46 47 47 48 50 52 54 55 56 57 57 57 58 59 59 60 61 61 61 60 59 59 59 60 61 62 64 65 66 68 69 71 73 74 75 75 76 76 76 77 77 78 79 80 80 81 81 81 80 80 79 79 79 80 81 82
38 43 46 44 42 42 41 41 41 41 40 38 38 37 36 35 34 33 34 34 32 32 34 34 34 37 42 43 44 46 47 48 50 52 54 55 56 57 59 60 60 60 61 61 62 63 63 64 64 64 63 63 63 63 64 65 66 67 68 69 71 72 74 75 77 78 79 79 79 80 80 80 81 82 82 83 84 84 84 84 83 82 82 82 82 83
41 47 47 45 44 42 42 43 44 42 39 38 38 37 36 35 35 35 36 35 35 35 37 37 35 37 42 46 47 50 51 52 55 57 59 59 60 61 62 63 64 65 65 66 66 66 66 66 67 67 66 67 67 67 68 69 69 70 71 73 74 75 76 76 77 78 80 81 81 82 82 83 83 84 84 85 85 86 87 87 87 87 86 86 85 85
44 50 48 44 45 44 44 45 45 42 39 38 40 39 38 38 38 38 38 38 38 38 39 40 40 39 41 45 50 53 54 56 58 60 61 63 64 64 65 66 67 67 69 69 70 70 70 69 69 69 69 70 72 72 73 73 73 74 76 78 80 81 81 80 80 80 80 81 82 82 83 84 85 86 86 87 88 88 88 89 89 89 89 89 89 89
48 51 48 46 46 46 46 46 44 41 40 41 43 43 41 41 41 41 41 41 40 40 40 42 45 43 41 45 50 53 56 59 61 62 64 66 67 68 69 70 70 71 71 72 72 73 72 72 72 72 73 75 77 77 77 77 77 78 80 82 84 85 85 85 84 83 82 82 82 82 83 84 85 86 87 88 89 90 91 91 91 91 91 91 92 92
50 51 50 49 48 48 48 47 45 44 44 45 46 45 44 44 44 44 44 43 43 42 43 47 51 48 44 47 52 54 58 62 63 65 67 69 70 72 73 74 75 75 75 75 76 76 75 75 75 76 78 80 81 82 81 80 81 82 83 85 87 88 88 88 88 87 85 84 84 84 84 84 85 86 87 88 89 90 92 93 93 94 94 94 94 95
52 52 52 51 51 50 50 48 49 49 48 48 48 47 47 47 47 47 46 47 47 46 47 52 56 54 48 50 55 58 61 64 66 68 70 71 73 75 76 78 78 79 79 79 80 79 78 78 79 81 83 85 86 86 85 83 83 85 87 89 90 91 91 92 92 91 89 87 86 86 85 86 86 86 87 88 89 90 91 92 93 94 95 96 96 97
55 54 54 53 53 53 52 52 52 51 50 50 50 50 51 50 50 50 50 52 53 51 52 56 60 59 55 55 61 64 66 68 70 72 74 75 76 77 79 80 80 81 82 82 82 81 81 82 84 86 88 90 91 91 89 86 87 89 91 92 92 93 94 94 94 93 92 91 89 88 87 87 87 87 88 89 90 91 91 92 93 94 95 96 97 98
56 55 55 55 55 55 56 56 55 54 53 53 54 54 54 54 54 55 55 58 57 55 56 59 61 61 60 62 67 70 71 73 75 77 79 81 81 81 82 82 82 83 83 83 83 83 83 85 87 89 91 93 94 93 91 90 91 92 93 93 94 95 96 97 97 96 94 92 91 91 90 89 89 89 89 89 90 91 92 92 93 94 95 96 97 98
56 56 57 57 57 58 59 59 59 58 58 58 58 58 59 58 59 59 60 61 60 58 59 61 62 61 60 64 69 73 75 77 79 82 84 85 86 85 85 84 84 85 85 84 84 85 86 88 90 92 94 95 94 94 93 94 95 95 95 95 96 97 98 99 99 97 95 93 92 91 91 90 90 90 90 90 91 91 92 93 94 95 96 97 97 98
59 59 60 60 61 61 62 62 63 62 62 62 62 63 63 63 64 64 64 64 62 62 63 63 64 62 61 66 71 75 77 79 83 86 88 89 89 88 88 87 87 87 86 86 86 87 89 91 94 95 96 96 95 96 97 97 97 97 98 98 99 100 100 101 100 98 96 94 92 90 90 90 90 90 90 91 91 92 93 94 95 96 97 98 98 99
62 62 63 63 64 65 65 66 67 66 66 66 66 67 67 68 70 68 66 65 65 65 65 65 67 65 65 69 73 76 80 83 86 89 92 93 92 91 91 90 90 90 89 88 89 90 93 95 97 97 97 97 98 99 99 99 99 100 101 102 103 104 104 104 103 100 97 94 92 91 90 89 90 90 90 91 91 92 93 94 95 96 98 99 99 100
65 65 66 67 67 69 69 69 70 70 70 70 70 71 71 73 75 72 70 69 69 68 67 67 68 67 69 73 76 79 83 86 89 91 94 94 93 92 92 92 92 91 91 92 94 96 98 99 98 98 100 101 102 101 100 101 102 103 105 106 108 109 109 108 105 102 98 95 93 92 91 90 90 90 90 91 91 92 93 94 95 97 98 99 101 102
68 68 70 71 71 72 72 72 73 73 74 74 74 75 76 77 77 76 75 73 74 73 70 68 69 70 73 75 77 82 86 89 92 94 94 94 93 93 94 93 93 93 94 97 99 101 101 100 101 103 105 105 104 103 103 104 104 106 109 111 113 114 114 112 109 104 100 97 95 93 92 91 91 91 91 91 92 93 94 95 96 97 98 100 101 103
70 70 71 73 73 73 74 74 75 76 77 78 78 79 80 80 79 80 80 78 79 79 74 70 71 73 76 78 80 84 88 92 94 94 93 93 94 94 94 94 95 96 99 102 102 102 102 104 107 108 108 107 107 107 107 108 110 112 116 118 119 120 119 116 111 106 102 99 97 95 93 93 92 92 92 93 93 94 95 96 97 98 99 100 102 103
72 72 72 73 74 75 76 76 76 78 80 81 81 81 82 82 82 83 84 83 82 82 77 74 73 75 78 82 85 86 88 91 94 94 94 94 94 94 94 96 98 101 103 104 103 105 107 110 111 111 111 111 112 112 113 116 119 122 124 124 125 124 121 117 112 107 104 101 98 97 95 94 94 94 94 94 95 96 96 98 99 100 101 102 103 105
76 76 75 75 77 78 78 78 79 81 83 84 83 83 83 84 85 86 86 84 83 83 82 80 79 79 81 85 87 87 90 92 94 95 95 95 95 95 96 99 102 104 104 105 108 111 114 115 115 115 115 116 117 119 122 125 128 129 130 131 130 127 123 117 112 108 105 102 100 99 97 96 96 95 95 96 96 97 98 99 100 101 102 103 105 106
80 80 79 80 80 80 80 81 83 85 86 86 86 85 85 86 87 87 85 83 84 88 89 90 89 84 82 86 88 90 92 93 95 95 96 96 95 97 100 102 104 105 107 111 115 117 118 118 119 120 120 122 124 126 129 131 133 135 136 135 133 128 122 116 111 108 106 103 102 100 99 98 98 98 98 98 98 99 100 101 101 102 103 104 105 106
83 83 83 82 82 82 84 86 87 87 87 87 87 86 86 87 87 86 85 84 88 93 95 98 96 87 83 88 91 92 95 95 95 94 95 96 97 100 103 104 106 109 114 118 120 121 122 123 124 125 126 128 130 132 134 136 137 139 139 138 133 127 120 115 111 107 105 103 102 100 100 100 100 100 100 100 101 102 102 103 103 104 105 105 106 106
87 86 84 83 84 86 88 88 88 88 88 88 87 86 85 85 84 87 89 89 93 97 97 101 100 89 86 91 95 97 98 96 96 96 97 98 100 102 104 106 111 116 120 123 124 125 126 127 128 130 131 133 135 137 138 140 141 142 141 137 131 124 118 113 109 106 104 103 102 101 101 101 101 101 102 102 103 103 103 104 104 104 104 105 105 105
89 88 87 87 87 88 88 87 86 87 88 87 86 83 83 84 87 91 94 96 98 98 99 103 102 92 91 97 99 99 99 100 101 102 101 102 103 104 107 112 117 121 124 126 127 129 130 131 133 134 135 137 139 141 142 143 144 143 140 134 126 120 114 110 107 105 104 103 102 102 101 101 101 101 101 101 101 101 101 101 101 100 100 100 100 101
91 91 90 89 89 87 86 85 84 85 86 85 83 83 85 88 92 95 97 100 101 99 100 105 102 98 100 101 100 100 103 105 107 106 105 106 108 110 114 118 122 125 127 129 131 132 133 135 136 137 139 141 143 144 145 146 145 143 136 128 121 115 111 108 106 104 104 103 102 101 100 99 99 98 98 97 97 97 97 96 96 96 96 96 96 97
92 91 90 88 86 84 82 82 82 83 85 85 84 86 90 93 95 97 100 101 102 102 103 104 104 106 106 102 102 106 108 108 109 109 109 111 113 117 121 123 126 129 131 133 135 136 137 138 139 141 143 145 147 148 148 147 144 138 130 122 116 112 109 107 105 104 102 100 99 98 97 96 94 93 93 92 92 93 93 93 93 93 94 94 95 95
90 89 87 85 83 81 81 82 84 85 87 88 89 91 93 94 96 99 101 101 102 107 108 106 107 110 107 104 108 111 111 112 114 114 114 116 119 123 125 128 131 133 136 138 139 140 141 142 143 145 147 149 150 150 149 146 140 132 124 118 114 111 108 106 104 101 99 97 96 94 93 92 91 90 90 90 90 90 91 91 92 92 93 94 94 95
89 88 85 85 85 84 85 87 89 90 91 91 92 91 92 95 97 99 100 101 106 113 112 108 109 112 109 108 111 113 115 118 119 119 120 123 126 128 130 133 136 138 140 141 141 143 144 146 148 150 151 152 152 151 148 141 133 125 119 115 112 109 106 104 101 98 96 95 93 92 91 90 90 89 89 90 90 90 91 91 92 93 94 94 95 95
91 90 88 90 90 89 91 93 93 94 94 93 92 91 93 96 97 98 101 105 111 115 112 110 113 114 110 110 114 118 121 123 123 124 126 128 130 132 135 138 141 142 143 143 144 146 147 150 152 154 154 154 153 149 142 133 126 120 116 113 110 107 104 101 98 96 95 93 92 92 91 91 90 90 91 91 91 91 92 92 93 93 94 94 95 95
93 93 92 94 95 94 94 94 95 97 96 94 92 92 93 95 97 101 106 110 113 114 114 116 118 114 110 114 120 124 125 126 127 128 129 131 134 137 140 142 144 145 145 146 147 149 151 154 155 156 156 154 150 143 134 126 121 117 113 110 107 104 101 98 96 95 94 93 92 92 92 91 91 91 91 92 92 92 92 92 93 93 93 93 94 94
95 95 94 95 97 95 93 96 99 99 99 98 93 90 93 98 102 107 109 111 113 117 118 120 119 115 115 121 125 126 127 129 130 131 133 135 139 142 144 146 147 147 148 149 151 153 155 156 157 157 156 152 144 135 128 122 118 114 110 107 104 102 99 97 96 95 94 93 92 92 92 92 92 91 91 91 91 91 91 91 91 91 91 92 92 92
96 95 94 96 98 97 95 99 102 103 105 100 90 90 99 105 107 109 110 113 117 120 121 122 121 120 122 126 127 128 130 132 133 135 137 140 143 146 148 149 149 149 151 152 154 156 157 158 158 157 152 145 137 129 124 120 115 111 108 105 103 101 99 97 96 95 94 93 93 93 92 92 91 91 90 90 90 90 90 90 90 90 90 90 90 90
99 99 99 101 103 102 100 102 106 110 110 98 89 97 108 110 109 112 116 118 120 122 124 125 125 125 127 129 130 131 132 134 136 138 141 144 147 150 151 150 151 152 154 156 157 158 159 159 157 152 145 137 131 126 122 118 113 110 107 105 103 101 100 98 96 95 94 94 93 93 92 92 91 91 90 90 90 90 89 89 88 88 88 88 88 88
104 105 106 108 111 110 107 109 113 117 111 100 99 108 112 111 114 118 121 122 123 125 126 127 128 130 131 132 133 134 136 138 140 142 145 148 150 151 152 153 154 155 156 157 159 160 160 157 151 144 137 132 128 124 120 116 112 110 108 106 104 102 100 98 97 96 95 94 93 93 92 92 91 91 90 90 90 89 88 88 87 87 87 87 87 88
110 111 113 114 116 117 116 117 121 120 114 109 109 111 112 115 119 122 123 124 124 125 127 129 132 134 134 135 137 138 140 142 144 146 148 150 152 152 154 155 156 157 158 159 161 160 157 151 144 137 132 128 124 120 117 114 113 110 108 106 104 102 100 99 97 96 95 94 93 93 92 92 91 91 90 90 89 88 87 86 86 86 86 87 87 87
114 116 117 118 120 122 122 124 126 124 119 115 114 115 117 120 123 124 126 125 123 126 130 133 135 136 137 139 141 143 144 146 148 148 150 152 153 154 155 156 157 159 160 161 160 156 150 143 137 132 128 124 120 118 116 114 113 110 108 106 104 102 101 99 98 97 95 94 93 93 92 91 91 90 89 89 88 87 87 87 87 87 87 87 87 87
117 119 120 122 124 125 126 128 129 128 125 121 120 121 123 124 126 128 129 127 127 129 132 136 138 139 141 143 145 147 149 150 150 150 152 154 155 155 156 158 160 161 161 160 155 149 142 136 131 127 123 120 118 117 115 114 112 110 108 106 104 102 101 99 98 97 96 95 94 93 92 91 91 90 89 88 88 87 87 87 87 87 87 87 87 87
120 122 123 125 127 128 129 131 132 131 129 125 124 125 126 127 130 132 133 133 132 131 135 139 142 144 146 148 150 151 152 152 151 152 154 156 156 157 160 161 162 162 159 154 148 141 135 130 126 122 119 118 117 116 115 113 111 109 107 105 103 102 100 99 98 97 96 95 94 94 93 92 92 91 90 89 88 88 88 87 87 87 87 87 87 87
123 124 125 128 129 130 131 132 133 133 130 127 126 127 129 130 133 136 139 138 136 136 140 144 147 149 151 152 152 153 154 153 153 154 156 158 159 161 163 163 162 158 153 146 140 134 129 125 122 119 118 117 116 115 114 112 110 108 106 104 102 100 99 98 97 96 96 95 94 94 93 93 92 91 90 89 88 88 87 87 87 87 87 87 86 86
126 126 128 129 130 131 132 133 134 134 132 129 129 130 132 134 137 141 143 142 142 144 147 149 152 153 154 154 155 154 155 155 155 157 159 161 162 163 163 161 157 151 144 138 133 128 124 121 119 118 117 116 114 113 112 111 109 107 104 102 100 99 98 97 96 96 95 94 94 93 93 92 91 90 89 89 88 87 87 87 87 87 86 86 86 85
127 128 129 130 131 132 133 134 135 135 133 131 133 135 137 139 142 144 146 147 149 152 153 154 155 156 156 156 155 155 156 158 159 161 162 163 164 163 159 155 149 142 137 132 127 123 120 118 117 116 115 114 113 112 111 109 107 105 102 101 99 98 97 96 96 95 94 93 93 92 91 91 90 89 89 88 87 87 87 87 86 86 86 85 85 84
128 129 131 131 132 132 134 136 137 137 134 133 136 140 142 144 146 148 150 152 155 157 158 159 158 157 157 156 157 158 159 161 162 163 164 163 161 158 153 146 140 134 130 127 123 121 119 117 116 115 114 114 112 111 110 108 105 103 101 100 98 97 96 96 95 94 93 93 92 91 90 89 88 88 87 87 86 86 86 86 86 85 85 85 84 84
130 131 132 132 132 134 136 139 140 138 137 138 141 145 147 149 151 152 154 156 159 161 161 160 159 158 159 159 161 162 163 164 165 164 162 159 155 150 143 137 132 128 125 123 121 119 117 116 115 114 113 112 111 109 107 105 104 102 100 99 98 97 96 95 94 94 93 92 91 90 89 88 87 87 86 86 86 85 85 85 85 84 84 84 83 82
133 133 133 134 136 138 140 142 142 141 141 143 145 148 150 153 155 157 159 162 163 163 162 161 160 161 162 164 165 166 166 165 164 161 157 153 147 140 135 130 126 124 123 122 120 118 116 115 114 112 111 110 109 107 105 104 102 100 99 98 97 96 96 95 94 93 92 92 91 90 88 87 87 86 86 86 85 85 85 84 84 84 83 82 81 81
136 137 137 138 140 142 143 143 143 143 144 146 148 151 155 158 160 163 164 165 165 164 163 163 163 165 166 168 168 167 165 162 159 155 151 145 138 133 129 126 124 123 122 121 119 117 115 113 112 111 110 109 107 105 104 102 100 99 97 96 95 95 94 94 93 92 92 91 90 89 89 88 87 87 86 86 85 84 84 84 83 83 82 81 80 80
140 140 141 141 142 143 144 144 145 147 149 151 154 157 161 163 165 166 166 166 166 165 166 166 167 169 170 169 167 164 159 156 152 148 142 136 131 128 126 125 124 123 122 120 118 117 114 112 110 109 109 107 106 104 102 100 98 97 95 94 93 93 93 92 92 92 91 91 90 90 89 89 88 88 87 86 85 84 83 83 82 82 81 81 80 79
143 143 144 144 145 146 147 148 150 152 155 157 160 162 164 166 167 167 168 168 168 168 169 170 171 171 170 166 162 158 154 149 144 139 134 130 127 125 124 124 123 122 120 119 117 115 113 111 109 108 106 105 103 101 100 98 96 94 93 92 92 91 91 91 91 91 91 91 90 90 90 89 88 88 87 85 84 83 83 82 82 81 81 81 80 80
146 147 147 148 149 150 152 153 156 158 159 161 162 163 165 167 168 169 170 170 171 171 172 173 172 169 165 160 155 151 147 141 136 132 129 127 125 124 123 122 121 120 118 116 115 113 111 109 107 105 103 102 100 98 97 95 93 91 91 91 90 90 90 90 90 90 90 90 90 89 89 88 87 86 85 84 84 83 82 82 81 81 81 80 80 79
149 150 151 152 153 154 155 156 159 160 161 163 164 165 167 169 170 172 172 172 173 173 173 171 167 162 157 152 148 143 138 133 130 128 127 125 124 123 121 120 118 117 115 113 112 110 108 106 104 102 100 99 97 96 94 92 91 90 90 89 89 89 89 89 89 89 89 89 88 88 86 85 84 84 83 83 82 82 81 81 81 80 80 79 78 77
152 153 153 153 154 155 156 159 161 163 163 164 166 168 170 171 173 173 174 174 173 171 169 164 159 153 148 144 139 135 131 129 128 127 125 124 122 121 119 117 116 114 112 110 108 106 104 102 101 99 98 96 95 93 91 90 89 88 88 88 88 88 88 88 88 88 88 87 86 85 84 83 82 82 82 81 81 81 81 80 80 79 78 78 77 77
153 153 154 154 155 157 159 162 164 166 167 168 169 171 172 173 174 174 173 171 168 164 160 156 150 144 139 134 131 130 128 127 126 125 123 121 120 118 117 115 113 111 108 106 103 102 100 99 98 97 96 94 92 91 89 88 87 86 86 86 86 86 87 87 87 87 87 86 84 83 82 82 81 81 80 80 80 80 80 79 79 79 77 76 76 76
Wind_Direction
258 261 261 261 266 274 276 273 273 275 278 280 281 280 280 280 280 281 285 287 289 290 290 292 295 294 294 297 297 296 296 296 296 296 295 294 294 296 297 297 298 298 297 297 297 297 297 298 297 297 297 297 297 296 295 294 293 293 292 291 290 289 288 288 287 286 285 284 282 281 280 278 277 276 275 274 274 274 274 274 274 273 273 272 272 271
258 260 259 263 270 274 272 272 274 277 278 279 279 279 280 279 279 282 285 287 288 290 290 292 295 294 294 294 293 293 294 295 296 295 294 292 291 293 295 296 296 297 297 297 297 298 297 297 297 297 297 297 298 298 297 296 295 294 293 292 291 289 288 287 286 285 284 284 283 281 280 279 277 276 275 274 273 272 272 271 271 271 271 271 271 271
259 259 260 265 270 270 271 273 274 275 276 276 277 278 278 278 280 283 284 285 288 290 290 291 292 292 292 292 291 291 292 293 294 294 293 291 291 292 294 295 296 297 297 297 297 296 296 295 295 295 296 297 297 298 298 298 297 296 295 294 293 291 290 288 287 285 284 283 282 281 280 279 278 277 276 274 273 272 271 271 270 270 269 269 269 269
260 259 261 266 268 269 271 272 272 273 274 275 276 277 277 278 281 283 283 285 289 290 289 289 290 290 290 291 292 292 293 294 294 294 293 292 292 292 293 294 295 296 297 296 296 295 294 294 293 293 294 295 296 297 298 298 298 298 297 297 296 294 292 291 289 287 285 283 282 280 280 279 278 277 276 275 274 273 272 271 270 269 268 268 267 267
261 259 262 266 268 268 269 270 271 271 272 274 275 275 275 277 280 280 281 285 288 288 287 287 289 289 289 291 293 293 294 295 295 293 291 290 291 292 293 294 295 297 297 297 296 295 294 294 293 292 292 293 295 296 297 298 298 298 298 298 298 297 295 293 291 289 287 285 283 281 280 278 277 277 276 275 274 274 273 272 270 269 268 267 267 266
261 260 263 266 265 266 267 269 269 270 272 272 271 272 273 276 278 278 280 283 285 286 286 287 287 287 290 294 296 295 296 297 296 294 294 294 295 296 298 299 299 300 300 299 298 297 296 294 293 293 294 295 297 299 299 299 299 299 299 299 299 298 297 295 292 289 287 286 284 282 280 279 277 276 275 274 274 273 272 271 271 269 268 267 266 266
260 261 264 264 263 265 267 267 268 270 270 269 269 271 274 276 277 279 281 282 285 286 288 289 289 288 291 295 297 298 298 297 295 295 296 298 299 300 301 301 301 301 301 300 300 299 297 296 295 296 298 300 302 303 303 302 301 301 301 301 301 301 300 298 295 292 289 286 284 283 281 279 278 276 275 274 273 272 272 271 270 269 268 267 267 266
259 262 263 261 262 265 265 266 268 269 268 269 271 274 276 278 280 282 283 285 287 288 290 292 290 291 294 296 297 298 297 295 294 296 298 299 301 302 302 302 302 302 302 302 302 301 299 298 299 300 303 305 306 306 305 303 302 302 302 303 303 303 302 301 299 297 293 290 286 284 282 280 278 277 276 274 273 272 271 271 270 269 268 268 267 266
259 261 261 260 262 264 264 266 267 268 269 271 273 276 278 281 283 284 286 288 290 291 294 293 292 294 298 299 298 298 295 294 296 297 299 301 302 302 302 303 303 303 304 304 303 302 302 302 303 304 306 308 308 307 305 303 302 303 303 304 304 304 304 303 302 300 297 293 290 287 284 282 280 278 277 275 274 273 271 270 270 269 268 268 267 267
260 259 259 260 262 263 265 267 267 269 271 272 274 277 279 281 283 285 287 288 289 293 295 293 294 298 301 302 300 298 297 297 298 299 300 301 301 301 302 302 303 303 304 304 304 304 304 305 306 308 309 310 309 307 305 303 302 303 303 303 304 305 305 305 304 301 298 295 292 288 286 283 281 279 278 277 275 274 273 272 271 270 269 268 268 267
257 257 258 260 262 263 265 267 268 270 271 272 275 277 279 281 282 283 285 286 287 291 293 293 296 300 303 302 299 297 298 299 299 300 301 301 300 300 301 301 301 302 303 304 304 305 306 307 308 310 310 310 309 307 305 303 303 302 303 303 304 305 305 305 304 302 299 296 292 289 286 284 282 280 278 277 276 275 274 274 273 272 271 270 270 269
256 256 258 259 261 263 265 267 269 270 271 272 275 277 278 279 280 282 283 283 286 291 292 293 296 299 302 301 297 297 298 298 300 300 300 299 299 300 299 299 300 300 302 303 304 305 306 307 309 309 309 308 307 306 304 303 302 302 302 303 304 304 305 305 303 301 299 296 293 289 286 283 281 279 278 276 275 274 274 273 273 272 272 271 271 270
256 257 258 259 261 263 265 268 269 270 271 273 274 276 277 278 279 280 280 281 286 290 291 292 293 296 299 298 297 298 299 299 299 298 298 298 298 298 298 298 299 300 301 302 303 305 306 308 308 308 307 306 305 305 303 302 301 301 302 302 303 303 304 304 303 301 298 295 292 289 286 283 281 279 277 276 274 273 272 272 271 271 271 271 271 271
257 258 259 260 262 264 265 267 268 270 271 273 274 275 276 277 276 276 278 282 286 288 288 290 291 294 297 296 297 299 299 298 297 296 297 298 297 297 297 298 299 300 302 303 304 306 307 308 308 307 306 306 305 304 303 302 302 302 302 302 303 303 303 303 302 300 297 294 291 288 285 283 280 278 277 275 274 273 272 271 270 270 270 270 270 270
257 258 260 261 263 264 265 267 268 270 271 272 273 274 275 275 275 276 279 282 284 284 286 289 290 293 295 296 297 298 297 296 296 296 297 297 296 296 297 299 300 302 303 305 306 307 308 307 307 307 307 306 305 304 303 303 304 304 304 304 305 305 304 304 302 300 297 293 290 287 284 282 280 278 277 275 274 273 272 271 270 269 268 268 268 268
258 259 261 262 263 264 266 267 269 270 271 272 273 275 275 275 276 279 281 282 282 283 285 287 290 294 295 295 297 297 296 296 295 295 295 295 295 296 298 300 302 304 305 307 308 308 307 307 307 308 308 307 306 305 305 305 305 305 306 306 306 306 305 304 302 300 297 294 291 288 285 282 280 279 277 276 274 273 272 270 270 269 268 267 267 267
260 261 262 264 265 266 267 269 270 272 273 273 274 275 276 276 279 281 281 281 282 283 285 288 292 294 294 296 297 296 295 294 293 293 293 294 295 297 299 301 303 305 307 308 308 308 308 308 309 309 308 307 307 306 306 306 306 307 307 308 307 307 306 305 303 300 298 295 292 290 287 285 282 280 278 277 275 274 273 272 271 270 269 268 268 267
263 264 265 266 268 269 270 271 272 274 274 275 275 276 277 279 281 281 281 282 282 284 288 292 294 294 295 296 295 293 293 292 292 292 293 295 296 298 300 303 305 307 308 308 308 308 309 310 310 310 309 308 308 308 308 308 308 309 309 309 309 308 307 306 304 301 299 296 294 292 289 287 285 283 281 279 278 276 275 274 273 272 271 270 269 268
264 265 266 268 269 270 271 272 274 275 275 275 275 277 278 280 281 282 282 283 284 287 291 293 293 293 294 293 292 292 292 292 292 293 294 295 297 300 302 305 307 308 308 308 309 310 311 311 311 310 310 310 310 310 310 310 311 311 311 310 310 309 308 306 304 301 300 298 296 294 292 290 288 286 284 282 280 279 277 276 275 274 273 272 271 270
264 265 267 268 269 270 272 273 274 273 274 275 276 278 279 280 281 282 283 285 288 290 292 291 290 290 291 291 292 293 292 291 292 293 294 296 299 302 304 306 307 308 309 310 311 312 312 311 311 311 311 311 311 311 312 312 312 312 312 311 311 309 307 305 303 301 300 298 297 295 293 291 290 288 286 284 283 281 280 278 277 276 275 274 273 272
265 266 266 267 269 270 272 272 272 272 274 276 278 279 280 281 281 282 285 288 290 291 291 290 288 289 291 292 292 292 291 291 292 293 296 299 301 303 305 306 308 310 311 312 313 312 312 312 312 312 311 311 311 312 312 312 312 312 312 311 310 308 306 304 302 301 300 298 297 295 294 292 291 289 288 286 284 283 281 280 279 277 276 275 274 273
265 265 266 267 269 270 270 271 272 274 276 277 278 279 280 281 282 285 288 289 290 289 290 289 289 291 294 293 292 292 291 292 293 295 298 300 302 304 306 308 310 312 313 313 312 312 312 312 311 311 311 311 312 312 312 312 312 312 312 311 309 307 305 303 302 300 299 298 296 295 294 292 291 290 288 287 285 284 282 281 280 279 278 277 275 274
265 265 266 267 268 268 270 272 274 275 276 277 278 279 280 282 285 287 288 288 288 288 290 291 292 295 296 294 293 294 294 295 297 299 300 301 303 306 308 310 312 313 312 312 312 312 311 311 311 311 311 311 311 311 311 312 312 311 311 309 308 306 304 303 301 300 298 297 296 294 293 292 290 289 287 286 285 283 282 281 280 279 279 278 277 276
265 265 266 266 267 268 271 273 275 276 277 277 278 280 282 285 286 286 287 288 288 290 293 294 295 297 297 295 295 296 298 301 303 303 303 305 306 308 310 312 312 312 311 311 311 311 310 310 310 311 311 311 311 311 311 311 311 310 309 308 306 305 303 302 301 299 298 296 295 294 292 291 289 288 286 285 284 283 283 282 281 280 279 278 278 277
265 266 266 267 268 270 273 274 276 276 276 277 280 282 284 284 285 286 287 289 290 293 295 295 297 298 297 297 298 300 303 305 305 305 306 308 310 311 312 311 311 311 311 311 310 310 309 310 310 310 311 311 311 311 311 311 310 309 308 307 305 304 302 301 300 298 297 295 294 293 291 290 289 287 287 286 285 284 283 282 281 281 280 279 278 278
265 266 267 269 271 273 275 275 276 277 278 279 281 282 282 284 286 287 289 291 294 296 295 296 298 298 298 301 303 304 305 306 305 306 308 310 312 312 311 310 311 311 311 310 309 309 310 310 310 310 310 310 310 310 310 310 309 309 307 306 304 303 302 300 299 297 296 295 294 292 291 290 289 288 287 286 284 283 282 282 281 280 280 279 278 278
266 268 269 271 273 275 276 277 277 277 278 279 280 280 283 285 287 289 291 295 296 296 295 297 298 298 300 304 305 306 307 306 306 308 311 312 312 311 310 310 311 310 309 309 309 309 310 310 310 310 310 310 310 310 310 309 309 308 306 305 303 302 301 299 298 297 296 295 294 292 291 290 289 288 286 285 284 283 282 281 281 280 280 279 279 278
267 269 271 273 274 275 276 275 275 275 276 277 279 281 284 287 289 292 295 296 296 295 295 297 298 299 303 306 307 307 307 306 308 311 311 311 310 310 310 310 309 308 308 308 309 309 309 309 310 310 310 310 310 310 309 309 308 306 305 304 302 301 300 298 297 297 296 295 293 292 291 290 289 287 286 285 284 283 282 282 281 281 280 280 279 279
268 270 272 273 273 274 274 274 274 276 277 278 281 284 287 289 292 295 296 296 295 295 297 300 300 302 306 308 307 306 306 307 310 310 309 309 309 309 309 308 308 308 308 309 309 309 309 309 309 309 309 309 310 309 309 307 306 305 304 302 301 300 298 298 297 296 295 294 293 292 291 290 288 287 286 285 284 284 283 282 282 281 281 280 280 280
269 270 271 272 273 273 274 276 278 279 281 282 284 287 291 294 296 296 295 295 295 297 300 302 302 305 309 308 305 305 306 308 308 307 307 307 307 307 307 307 307 308 308 308 308 309 309 309 309 309 309 309 309 308 307 306 304 303 302 301 299 298 298 297 297 295 294 294 293 291 290 289 288 287 286 285 285 284 283 283 282 281 281 280 280 279
271 271 272 273 275 276 277 280 282 283 285 285 287 292 296 297 296 295 295 297 299 301 302 302 304 308 308 305 304 305 306 305 305 305 306 306 306 306 306 306 307 307 308 308 308 308 309 308 308 309 309 309 308 307 306 304 303 302 301 299 298 298 297 296 296 295 294 293 292 290 289 288 287 286 286 285 285 284 283 283 282 282 281 281 280 280
276 276 276 278 279 280 281 283 285 287 287 287 292 298 298 296 295 297 298 300 301 301 302 303 306 307 305 303 303 304 303 303 304 304 304 304 305 305 305 306 307 307 307 308 308 308 308 308 308 309 308 308 306 305 304 303 302 301 300 298 298 297 297 296 295 294 293 292 291 290 289 288 288 287 286 286 285 284 284 283 283 283 282 282 281 280
281 282 283 284 284 285 286 287 289 289 289 292 298 299 296 296 299 301 301 301 301 301 302 304 305 304 302 302 302 302 302 302 302 303 303 304 304 304 305 306 306 307 307 307 307 307 308 308 308 308 307 306 305 304 303 302 301 300 299 298 298 297 296 296 295 294 293 292 291 291 290 290 289 289 288 287 286 286 285 285 284 284 283 282 281 281
285 286 287 287 288 289 290 291 290 291 293 297 298 296 297 300 302 301 300 300 301 301 302 302 302 301 300 300 300 300 301 301 301 302 303 303 304 304 305 306 306 306 306 306 307 307 308 308 307 306 305 304 303 303 302 301 300 299 299 298 298 297 297 296 295 294 294 293 293 292 292 291 290 290 289 288 288 287 287 286 286 285 284 283 283 282
287 287 288 288 289 290 291 291 291 292 295 297 297 298 300 301 299 298 298 299 299 300 299 299 298 298 298 298 299 299 300 300 301 302 302 303 303 304 305 305 305 305 305 306 307 307 307 307 306 305 304 303 302 302 301 300 299 299 299 298 298 297 297 296 296 295 295 294 294 293 292 292 291 290 290 289 288 288 288 287 287 286 285 285 284 283
286 287 288 288 289 289 290 291 292 294 296 298 300 301 301 299 298 297 296 297 297 296 296 296 296 296 296 297 298 298 299 300 301 301 302 302 303 304 305 305 304 305 306 306 307 306 306 305 304 303 303 302 301 300 300 299 299 299 298 298 298 298 297 297 297 296 296 295 294 293 293 292 291 290 290 290 289 289 289 288 288 287 287 286 285 285
285 285 286 287 287 288 289 290 292 294 297 300 301 299 298 297 296 295 294 294 294 294 295 294 294 294 295 296 297 298 299 299 300 301 301 302 303 304 304 304 304 305 306 306 306 305 304 303 303 302 302 301 300 299 299 298 298 298 298 298 298 298 298 298 297 297 296 296 295 294 293 292 292 291 291 291 290 290 289 289 288 288 287 287 286 286
283 284 285 285 285 287 288 289 291 293 296 298 297 296 296 295 294 292 292 293 294 293 293 292 292 294 295 296 297 298 298 299 301 301 301 302 303 303 303 304 305 305 305 305 304 303 303 302 302 301 300 299 299 298 298 298 298 298 298 298 298 298 298 297 297 297 296 296 295 294 294 293 292 292 291 291 291 290 290 290 289 289 288 288 288 287
282 282 283 283 284 286 287 288 290 292 294 295 294 293 293 292 291 290 291 292 293 292 290 291 293 294 295 296 297 298 299 300 301 301 301 302 303 303 304 304 305 304 304 303 302 302 301 301 300 300 299 299 298 297 297 297 297 297 297 297 297 298 297 297 297 297 296 295 295 294 293 293 292 292 292 291 291 291 290 290 290 289 289 288 288 288
280 281 282 283 284 285 286 287 288 290 292 293 292 291 289 288 289 290 291 292 292 290 290 292 293 294 295 296 297 298 299 300 300 301 301 302 303 303 304 304 304 303 302 301 301 301 300 299 299 298 298 297 297 296 296 296 296 297 297 297 297 297 297 297 297 296 295 295 294 293 292 292 292 292 292 292 292 291 291 290 290 290 289 289 288 288
279 280 281 282 283 284 285 286 287 288 290 291 290 288 287 288 289 290 290 290 290 290 291 292 293 294 295 296 297 298 299 299 300 300 301 302 303 303 303 303 302 302 301 300 300 299 299 298 298 297 297 296 296 296 296 296 296 297 297 297 297 297 297 297 296 295 294 293 293 292 292 292 292 292 292 292 292 291 291 291 290 290 290 289 289 289
279 279 280 281 282 283 283 284 285 287 289 289 287 287 288 288 288 288 289 289 290 290 291 292 293 295 296 296 297 297 297 298 299 300 301 302 302 302 302 301 301 300 299 299 298 298 298 298 297 296 295 295 295 295 296 296 297 297 297 297 297 297 297 296 295 294 293 293 292 292 292 292 292 292 292 292 292 291 291 291 290 290 290 289 289 289
278 279 279 280 281 281 281 283 285 287 288 287 286 287 287 287 287 287 288 289 289 290 291 293 294 295 296 296 296 297 297 299 300 300 301 301 301 301 300 299 299 298 298 297 297 297 297 296 295 295 295 295 295 296 296 297 297 298 298 298 297 297 296 296 295 294 294 293 293 293 293 293 293 292 292 292 291 291 291 290 290 290 290 290 289 289
278 278 278 279 280 280 281 283 285 285 285 285 285 285 285 286 286 287 287 288 289 290 292 294 294 295 295 295 296 297 298 299 300 300 301 300 300 299 298 298 298 297 297 297 296 296 295 294 294 295 295 295 296 296 297 297 297 298 298 297 297 297 296 295 295 294 294 294 293 293 293 293 293 293 292 292 291 291 291 291 291 291 290 290 290 289
276 277 277 278 279 281 282 283 284 284 284 284 284 284 285 285 286 286 287 288 290 292 293 293 294 294 295 295 296 298 299 299 300 300 300 299 299 298 298 297 297 297 296 296 295 294 294 294 295 296 296 296 296 297 297 297 297 297 297 297 297 296 296 295 295 295 294 294 294 294 294 294 293 293 293 292 292 292 292 292 292 291 291 290 290 290
276 276 277 278 280 281 282 283 283 283 283 283 284 284 284 285 286 287 289 290 291 292 293 293 294 294 295 295 297 298 299 300 299 299 298 298 298 297 297 297 296 296 295 294 294 294 295 296 296 296 296 296 297 297 297 297 297 297 297 296 296 295 295 295 295 294 294 294 294 294 295 294 294 294 294 293 293 293 293 292 292 291 291 291 290 290
276 277 278 279 280 281 282 282 282 282 282 283 283 284 285 286 287 288 289 290 291 292 293 293 293 294 295 296 298 299 299 298 298 297 297 297 297 296 296 296 295 294 294 294 295 295 296 296 296 296 296 296 296 296 296 296 296 296 296 296 295 295 295 295 294 294 294 294 294 295 294 294 294 294 294 294 293 293 293 292 292 292 291 291 291 291
276 277 278 280 280 280 281 281 282 282 282 283 284 285 286 287 287 288 289 290 291 292 292 292 293 294 296 297 298 298 297 297 297 297 296 296 295 295 294 294 293 293 294 294 295 295 296 296 295 295 295 295 295 295 295 295 295 296 296 296 295 295 294 294 294 294 294 294 294 294 294 293 293 293 293 293 293 293 292 292 292 292 291 291 291 290
276 277 278 279 280 281 281 282 282 282 282 283 285 285 285 286 287 288 289 290 290 291 291 292 293 295 296 296 296 296 296 296 296 295 295 294 294 293 293 292 292 293 294 294 294 295 295 295 295 295 295 294 294 295 295 295 296 296 296 295 295 294 294 293 293 293 293 293 293 293 293 293 293 293 293 292 292 292 292 292 291 291 291 291 290 290
277 277 278 279 280 281 281 281 281 282 282 283 284 284 285 286 287 288 289 289 290 290 291 293 294 295 295 295 295 295 296 295 294 293 293 293 292 292 292 292 293 293 293 293 294 294 294 294 294 294 294 294 294 294 295 295 295 295 295 294 294 293 293 293 293 293 292 292 292 292 292 292 292 292 292 291 291 291 291 292 292 291 291 291 290 290
276 277 278 278 279 280 280 280 281 281 282 283 284 284 285 286 287 288 288 289 290 291 291 292 293 293 294 294 295 295 294 293 292 292 292 292 292 292 293 293 293 293 293 293 293 293 294 294 294 294 294 294 294 294 294 295 294 294 294 293 293 293 293 293 293 292 292 292 292 292 292 292 292 292 291 291 291 292 292 292 292 292 292 291 290 290
Height
10742 10743 10741 10736 10737 10743 10745 10745 10744 10744 10744 10744 10744 10744 10744 10743 10740 10738 10740 10741 10742 10743 10741 10739 10741 10739 10737 10737 10737 10736 10735 10735 10734 10734 10734 10732 10730 10729 10728 10727 10725 10724 10723 10722 10721 10720 10719 10719 10718 10716 10715 10714 10714 10712 10711 10710 10708 10706 10704 10702 10700 10698 10696 10694 10692 10690 10688 10687 10686 10685 10684 10683 10682 10680 10679 10678 10676 10675 10675 10674 10674 10673 10672 10671 10671 10670
10738 10740 10734 10731 10736 10740 10740 10740 10739 10740 10740 10740 10740 10740 10739 10738 10736 10735 10736 10738 10738 10740 10739 10737 10737 10735 10733 10734 10733 10732 10732 10731 10731 10730 10729 10727 10725 10724 10723 10722 10720 10719 10718 10717 10716 10715 10713 10712 10711 10710 10709 10708 10707 10706 10704 10703 10701 10700 10697 10695 10694 10692 10690 10688 10685 10683 10681 10679 10677 10676 10675 10674 10672 10671 10670 10668 10667 10666 10665 10664 10663 10662 10662 10661 10660 10660
10735 10735 10728 10729 10734 10735 10734 10735 10735 10736 10736 10735 10735 10736 10735 10733 10733 10733 10732 10733 10735 10736 10736 10735 10734 10732 10730 10729 10728 10728 10728 10727 10727 10726 10724 10722 10720 10719 10718 10717 10716 10714 10713 10712 10710 10708 10706 10705 10704 10703 10702 10701 10700 10698 10696 10695 10693 10692 10690 10688 10686 10684 10682 10680 10678 10676 10674 10672 10670 10668 10666 10664 10663 10661 10660 10659 10657 10656 10655 10654 10653 10652 10651 10650 10649 10649
10732 10729 10724 10726 10730 10730 10730 10731 10731 10731 10731 10731 10731 10731 10730 10728 10730 10730 10729 10730 10731 10732 10732 10732 10732 10730 10725 10725 10725 10724 10724 10723 10722 10721 10719 10717 10715 10714 10712 10711 10710 10709 10708 10706 10704 10701 10700 10698 10697 10695 10694 10693 10692 10691 10689 10687 10686 10684 10682 10681 10679 10677 10674 10672 10670 10668 10666 10664 10662 10660 10658 10656 10654 10652 10651 10649 10647 10646 10645 10644 10642 10641 10640 10640 10639 10638
10728 10722 10720 10722 10725 10725 10726 10726 10726 10726 10727 10727 10726 10726 10726 10725 10726 10727 10725 10726 10728 10728 10728 10728 10730 10727 10721 10721 10721 10719 10719 10718 10717 10715 10712 10711 10710 10708 10706 10704 10704 10703 10701 10699 10697 10695 10693 10691 10689 10688 10686 10685 10684 10683 10682 10680 10678 10676 10674 10672 10671 10668 10666 10664 10661 10659 10656 10655 10653 10651 10649 10647 10645 10643 10641 10639 10637 10636 10634 10633 10632 10631 10630 10628 10627 10626
10722 10716 10716 10719 10719 10721 10721 10720 10720 10721 10723 10723 10721 10721 10722 10722 10722 10722 10722 10723 10724 10724 10723 10723 10726 10725 10720 10717 10716 10714 10714 10712 10709 10706 10704 10704 10703 10701 10700 10698 10697 10695 10693 10691 10690 10688 10686 10683 10681 10679 10678 10677 10676 10675 10673 10672 10670 10668 10666 10663 10661 10659 10656 10654 10651 10649 10646 10644 10642 10641 10639 10637 10636 10634 10631 10629 10627 10625 10624 10622 10621 10620 10619 10617 10616 10615
10715 10709 10712 10715 10714 10715 10716 10714 10714 10717 10719 10717 10715 10716 10718 10718 10717 10718 10718 10719 10720 10720 10719 10718 10718 10721 10721 10716 10711 10708 10707 10704 10701 10699 10698 10697 10696 10695 10693 10691 10689 10687 10685 10683 10682 10680 10677 10675 10673 10671 10669 10668 10666 10665 10663 10662 10660 10658 10655 10652 10650 10647 10645 10642 10640 10638 10636 10633 10631 10629 10627 10625 10624 10622 10620 10618 10617 10614 10612 10611 10609 10608 10607 10605 10604 10603
10708 10704 10708 10710 10709 10710 10709 10709 10710 10712 10713 10711 10710 10711 10712 10713 10713 10713 10713 10714 10715 10715 10715 10713 10710 10715 10720 10715 10709 10706 10701 10695 10693 10692 10691 10689 10688 10687 10686 10683 10682 10680 10678 10676 10674 10671 10668 10666 10664 10662 10661 10659 10657 10656 10654 10652 10650 10647 10644 10641 10638 10635 10632 10629 10626 10624 10622 10620 10618 10616 10614 10612 10611 10609 10607 10606 10604 10602 10600 10599 10597 10595 10594 10592 10591 10591
10702 10701 10702 10703 10704 10703 10703 10704 10706 10706 10706 10705 10704 10705 10706 10707 10707 10707 10707 10708 10709 10710 10711 10707 10702 10709 10716 10712 10706 10702 10696 10689 10687 10685 10683 10682 10680 10679 10677 10675 10673 10671 10669 10667 10664 10662 10659 10657 10655 10653 10652 10650 10649 10647 10645 10642 10640 10637 10635 10631 10626 10622 10619 10615 10612 10610 10608 10606 10604 10602 10601 10599 10597 10596 10594 10592 10590 10588 10587 10585 10583 10582 10580 10579 10577 10576
10697 10696 10696 10697 10698 10697 10698 10699 10699 10699 10700 10699 10698 10699 10700 10701 10701 10701 10702 10701 10702 10705 10706 10700 10696 10702 10710 10709 10701 10696 10691 10686 10683 10680 10678 10676 10673 10671 10669 10667 10665 10663 10660 10657 10654 10652 10650 10648 10646 10644 10642 10641 10639 10637 10635 10633 10630 10627 10624 10619 10615 10611 10608 10604 10600 10597 10594 10592 10590 10588 10586 10584 10583 10581 10579 10577 10575 10573 10572 10570 10569 10568 10566 10565 10563 10562
10691 10690 10690 10691 10691 10691 10692 10692 10692 10693 10693 10693 10692 10693 10693 10694 10695 10694 10695 10693 10695 10699 10699 10694 10692 10694 10702 10703 10694 10688 10686 10682 10678 10675 10673 10670 10668 10666 10664 10661 10658 10655 10652 10648 10645 10643 10640 10639 10637 10635 10633 10630 10628 10625 10623 10622 10619 10615 10611 10608 10604 10600 10597 10592 10588 10585 10582 10579 10576 10574 10572 10570 10568 10566 10564 10562 10560 10559 10557 10555 10554 10552 10551 10549 10547 10546
10684 10684 10685 10685 10685 10685 10684 10685 10685 10686 10686 10686 10686 10686 10686 10687 10687 10687 10687 10685 10687 10693 10692 10689 10688 10689 10693 10692 10685 10681 10679 10676 10673 10669 10665 10662 10661 10659 10657 10655 10651 10647 10644 10640 10637 10635 10632 10631 10629 10627 10624 10621 10617 10614 10612 10609 10606 10603 10600 10596 10593 10588 10584 10580 10576 10572 10568 10565 10562 10560 10558 10555 10553 10551 10549 10548 10546 10544 10542 10540 10538 10536 10535 10533 10531 10530
10679 10678 10678 10678 10678 10678 10677 10678 10678 10678 10679 10680 10679 10679 10678 10679 10679 10679 10678 10677 10681 10685 10684 10683 10682 10685 10687 10681 10674 10671 10669 10667 10663 10659 10656 10654 10652 10650 10647 10645 10641 10638 10635 10632 10628 10626 10623 10621 10620 10617 10614 10610 10607 10604 10600 10596 10592 10590 10587 10583 10580 10576 10571 10567 10563 10559 10555 10551 10548 10545 10543 10540 10538 10536 10534 10533 10531 10530 10528 10526 10523 10521 10519 10517 10515 10514
10672 10671 10671 10671 10671 10671 10671 10671 10670 10671 10672 10672 10672 10671 10671 10670 10668 10670 10670 10671 10675 10676 10675 10676 10675 10679 10681 10674 10667 10663 10659 10657 10652 10647 10645 10645 10642 10639 10635 10632 10629 10627 10624 10621 10619 10616 10614 10612 10609 10606 10603 10599 10596 10591 10587 10582 10579 10576 10572 10568 10565 10562 10558 10553 10549 10545 10541 10537 10534 10531 10528 10525 10523 10521 10519 10517 10516 10515 10513 10511 10509 10507 10505 10503 10500 10498
10665 10665 10664 10664 10665 10664 10664 10663 10662 10664 10664 10665 10664 10663 10664 10660 10656 10660 10663 10665 10667 10667 10668 10669 10667 10670 10671 10666 10661 10657 10651 10646 10642 10638 10635 10633 10630 10626 10623 10620 10617 10614 10612 10609 10607 10606 10604 10601 10598 10595 10592 10588 10583 10578 10574 10570 10566 10561 10557 10553 10549 10545 10542 10538 10534 10529 10525 10522 10519 10516 10513 10510 10507 10505 10503 10502 10500 10499 10497 10495 10494 10492 10490 10487 10485 10483
10658 10659 10657 10657 10658 10657 10657 10656 10656 10656 10657 10657 10656 10655 10654 10650 10646 10651 10655 10656 10655 10657 10662 10662 10660 10662 10661 10658 10655 10649 10642 10637 10632 10629 10625 10621 10619 10614 10611 10608 10605 10602 10599 10597 10595 10593 10591 10589 10586 10583 10578 10574 10569 10565 10561 10556 10551 10546 10541 10537 10532 10528 10524 10520 10516 10512 10509 10505 10502 10499 10497 10494 10492 10489 10487 10486 10484 10482 10480 10479 10477 10475 10473 10471 10469 10467
10652 10652 10650 10649 10650 10650 10650 10649 10648 10648 10648 10648 10647 10646 10643 10640 10640 10641 10643 10645 10643 10644 10653 10656 10654 10654 10652 10651 10649 10639 10632 10627 10622 10619 10615 10611 10608 10604 10600 10597 10594 10591 10588 10585 10583 10581 10579 10575 10572 10568 10563 10558 10554 10550 10545 10540 10536 10531 10526 10520 10515 10510 10505 10501 10497 10493 10490 10487 10484 10482 10479 10477 10475 10472 10470 10468 10466 10465 10463 10461 10459 10457 10455 10454 10452 10450
10644 10643 10643 10641 10641 10641 10641 10640 10640 10640 10638 10637 10637 10636 10634 10633 10633 10631 10629 10633 10632 10631 10641 10647 10647 10647 10644 10643 10640 10632 10625 10618 10610 10607 10604 10600 10597 10593 10590 10586 10582 10579 10575 10573 10571 10568 10564 10560 10555 10551 10546 10542 10538 10533 10528 10523 10519 10515 10509 10504 10498 10493 10487 10482 10478 10474 10471 10469 10466 10464 10461 10459 10456 10454 10452 10450 10448 10446 10444 10442 10440 10438 10437 10435 10433 10431
10634 10634 10635 10634 10633 10632 10631 10632 10633 10631 10627 10626 10627 10627 10626 10624 10623 10619 10617 10620 10621 10620 10628 10635 10638 10641 10638 10632 10628 10624 10617 10607 10598 10596 10593 10589 10587 10582 10578 10574 10569 10565 10562 10559 10556 10552 10548 10543 10539 10535 10530 10525 10520 10515 10510 10506 10502 10497 10492 10487 10482 10476 10470 10465 10460 10456 10453 10450 10448 10445 10442 10440 10438 10435 10433 10431 10429 10427 10424 10422 10420 10418 10416 10415 10413 10411
10625 10625 10627 10627 10624 10623 10624 10625 10623 10620 10616 10617 10619 10619 10618 10615 10611 10608 10606 10610 10611 10608 10611 10618 10626 10635 10633 10622 10616 10612 10605 10597 10589 10585 10581 10577 10574 10569 10564 10560 10556 10552 10548 10544 10540 10536 10532 10528 10524 10519 10514 10509 10503 10498 10494 10489 10485 10480 10474 10469 10464 10458 10453 10447 10443 10439 10435 10432 10429 10427 10424 10421 10419 10417 10414 10412 10410 10407 10405 10402 10400 10398 10396 10394 10392 10390
10615 10615 10617 10617 10616 10617 10618 10615 10611 10610 10609 10610 10611 10611 10610 10605 10599 10597 10599 10604 10601 10594 10596 10598 10606 10624 10626 10612 10604 10598 10591 10586 10581 10576 10570 10564 10560 10555 10550 10547 10543 10539 10534 10529 10525 10521 10518 10514 10509 10504 10499 10494 10489 10483 10479 10474 10469 10463 10457 10451 10446 10440 10435 10430 10426 10422 10419 10415 10412 10409 10407 10404 10401 10398 10396 10393 10390 10387 10385 10382 10380 10378 10376 10374 10372 10370
10604 10605 10606 10608 10609 10609 10607 10605 10603 10603 10603 10602 10602 10602 10599 10594 10591 10589 10591 10596 10591 10582 10584 10579 10583 10608 10615 10598 10588 10583 10576 10572 10570 10565 10559 10552 10547 10542 10537 10533 10530 10525 10520 10516 10513 10509 10505 10500 10494 10489 10485 10479 10474 10469 10464 10459 10453 10447 10441 10434 10428 10423 10418 10414 10410 10407 10403 10400 10396 10393 10390 10387 10384 10381 10378 10374 10371 10368 10365 10362 10359 10357 10354 10352 10350 10348
10592 10593 10597 10600 10600 10598 10596 10597 10598 10596 10595 10594 10593 10593 10589 10586 10586 10580 10578 10584 10580 10574 10576 10564 10563 10590 10597 10579 10570 10565 10559 10556 10554 10549 10544 10539 10535 10529 10525 10521 10516 10512 10507 10503 10500 10495 10490 10485 10479 10475 10470 10464 10459 10454 10448 10443 10436 10430 10423 10417 10411 10406 10402 10398 10394 10391 10387 10384 10381 10378 10374 10370 10367 10363 10359 10355 10351 10348 10345 10342 10340 10337 10334 10332 10329 10327
10580 10582 10587 10589 10589 10589 10589 10591 10591 10589 10585 10583 10583 10585 10583 10580 10578 10572 10568 10569 10565 10566 10566 10550 10549 10572 10574 10560 10555 10549 10541 10538 10534 10530 10527 10524 10521 10517 10512 10508 10503 10499 10495 10490 10486 10481 10476 10470 10465 10460 10455 10449 10443 10437 10432 10426 10419 10412 10405 10399 10395 10390 10386 10382 10378 10375 10371 10367 10364 10361 10357 10353 10349 10345 10341 10337 10333 10330 10326 10323 10321 10318 10315 10313 10310 10307
10569 10571 10575 10577 10578 10582 10584 10583 10583 10580 10575 10574 10577 10578 10575 10572 10568 10563 10560 10555 10551 10556 10553 10536 10537 10550 10548 10542 10541 10533 10525 10520 10514 10511 10511 10509 10506 10503 10498 10494 10491 10487 10482 10477 10472 10467 10462 10456 10450 10445 10439 10433 10427 10421 10415 10409 10402 10394 10388 10383 10379 10375 10370 10366 10363 10359 10354 10351 10347 10343 10339 10335 10331 10327 10323 10320 10316 10312 10309 10306 10303 10300 10297 10295 10292 10290
10558 10560 10564 10567 10570 10574 10575 10573 10572 10570 10567 10567 10571 10570 10565 10563 10559 10553 10549 10544 10541 10540 10534 10529 10528 10525 10524 10528 10523 10513 10509 10504 10497 10496 10496 10494 10492 10488 10483 10479 10477 10473 10468 10462 10457 10451 10446 10441 10435 10429 10422 10415 10409 10404 10398 10391 10384 10377 10372 10367 10363 10359 10354 10350 10346 10342 10338 10334 10331 10326 10322 10318 10315 10312 10308 10304 10300 10297 10294 10291 10288 10284 10281 10278 10276 10273
10548 10551 10555 10558 10560 10563 10563 10561 10561 10561 10560 10560 10562 10561 10558 10554 10549 10543 10538 10537 10531 10517 10513 10523 10518 10503 10509 10516 10501 10490 10489 10483 10480 10481 10481 10479 10476 10472 10468 10464 10461 10458 10453 10447 10441 10435 10429 10423 10418 10412 10405 10398 10391 10385 10379 10373 10367 10360 10354 10350 10345 10341 10337 10332 10328 10325 10321 10318 10314 10309 10306 10302 10300 10296 10293 10289 10285 10282 10279 10276 10273 10269 10266 10263 10260 10258
10540 10542 10548 10549 10550 10553 10553 10549 10549 10551 10552 10552 10552 10552 10550 10543 10538 10536 10530 10526 10516 10498 10497 10512 10503 10489 10498 10500 10482 10472 10469 10462 10462 10464 10463 10460 10457 10454 10453 10449 10445 10441 10437 10432 10427 10419 10412 10405 10400 10394 10387 10380 10373 10367 10361 10354 10349 10343 10338 10333 10329 10325 10320 10315 10312 10309 10304 10301 10297 10293 10289 10286 10283 10280 10276 10273 10269 10266 10263 10260 10257 10254 10250 10248 10245 10243
10532 10536 10541 10538 10537 10542 10540 10537 10537 10537 10537 10540 10541 10541 10539 10533 10530 10527 10519 10510 10498 10485 10487 10494 10483 10477 10486 10482 10465 10457 10452 10448 10448 10449 10448 10445 10441 10439 10437 10434 10430 10425 10420 10416 10411 10403 10396 10388 10381 10375 10367 10361 10355 10349 10343 10337 10332 10327 10322 10317 10313 10309 10304 10300 10298 10294 10289 10286 10282 10277 10274 10270 10267 10264 10260 10257 10254 10251 10248 10245 10241 10238 10236 10233 10231 10228
10522 10526 10530 10525 10522 10527 10528 10524 10522 10520 10520 10523 10528 10530 10528 10524 10520 10512 10502 10494 10484 10475 10475 10471 10462 10466 10474 10463 10448 10443 10440 10436 10435 10435 10435 10432 10428 10425 10422 10418 10415 10410 10404 10400 10393 10387 10380 10371 10363 10356 10349 10343 10337 10331 10326 10321 10316 10311 10307 10302 10297 10293 10290 10287 10284 10279 10275 10271 10267 10263 10259 10255 10252 10249 10245 10242 10239 10236 10233 10229 10227 10224 10221 10219 10217 10214
10508 10512 10516 10513 10507 10510 10516 10510 10503 10502 10502 10504 10515 10522 10518 10511 10504 10495 10488 10482 10472 10464 10459 10451 10446 10454 10458 10445 10433 10431 10429 10425 10423 10422 10422 10419 10415 10411 10406 10403 10400 10395 10389 10383 10377 10370 10363 10355 10346 10339 10332 10325 10319 10313 10309 10304 10299 10295 10291 10286 10282 10279 10276 10273 10269 10265 10261 10257 10252 10248 10244 10240 10237 10234 10231 10228 10225 10221 10218 10215 10212 10210 10207 10204 10201 10199
10495 10496 10500 10498 10490 10493 10501 10493 10485 10485 10481 10486 10508 10515 10502 10492 10488 10481 10474 10468 10459 10449 10441 10436 10436 10441 10438 10429 10423 10422 10418 10414 10412 10412 10409 10406 10401 10395 10391 10388 10384 10379 10373 10366 10360 10353 10345 10337 10330 10322 10315 10307 10301 10295 10291 10286 10283 10279 10275 10270 10267 10264 10261 10258 10255 10250 10246 10242 10237 10233 10229 10225 10222 10219 10216 10213 10209 10206 10203 10200 10198 10195 10192 10189 10186 10183
10482 10480 10481 10479 10471 10474 10482 10477 10470 10464 10460 10477 10502 10499 10480 10476 10473 10463 10455 10450 10443 10433 10426 10424 10425 10424 10419 10415 10414 10413 10409 10404 10404 10402 10398 10393 10387 10379 10375 10373 10368 10363 10357 10349 10342 10335 10327 10320 10313 10306 10298 10291 10284 10278 10273 10269 10266 10262 10258 10255 10252 10248 10245 10242 10239 10235 10231 10226 10221 10217 10213 10209 10206 10203 10200 10197 10193 10190 10187 10184 10182 10179 10176 10173 10170 10167
10467 10465 10463 10460 10452 10452 10460 10460 10451 10443 10449 10471 10485 10476 10466 10464 10457 10443 10435 10433 10428 10421 10416 10413 10410 10406 10404 10402 10402 10400 10398 10396 10395 10392 10387 10380 10372 10366 10361 10358 10352 10346 10340 10333 10326 10318 10311 10304 10297 10289 10282 10275 10268 10262 10257 10253 10249 10245 10242 10239 10236 10232 10229 10226 10222 10219 10215 10210 10206 10202 10197 10193 10190 10186 10183 10180 10177 10174 10171 10169 10166 10163 10160 10157 10154 10151
10452 10449 10445 10442 10437 10434 10438 10439 10431 10429 10443 10458 10460 10458 10457 10450 10438 10427 10420 10420 10418 10412 10406 10401 10394 10391 10390 10389 10388 10387 10386 10386 10384 10380 10375 10366 10359 10354 10350 10344 10338 10331 10325 10318 10310 10303 10295 10288 10281 10273 10266 10259 10253 10247 10241 10237 10233 10229 10226 10223 10219 10216 10213 10209 10205 10202 10198 10194 10190 10186 10182 10178 10174 10171 10168 10164 10161 10159 10156 10153 10150 10147 10144 10142 10139 10135
10438 10434 10430 10427 10423 10420 10420 10419 10414 10415 10427 10437 10438 10441 10440 10429 10419 10411 10406 10410 10413 10404 10396 10388 10379 10378 10379 10376 10375 10376 10374 10373 10372 10369 10361 10351 10346 10344 10338 10330 10323 10316 10310 10302 10294 10287 10280 10273 10266 10258 10251 10245 10238 10232 10227 10222 10218 10214 10211 10207 10203 10200 10196 10193 10189 10185 10181 10178 10174 10171 10167 10163 10160 10156 10153 10150 10147 10144 10142 10138 10135 10132 10130 10127 10124 10120
10426 10421 10418 10414 10409 10407 10404 10401 10400 10400 10407 10420 10423 10421 10419 10412 10403 10393 10389 10397 10403 10396 10385 10374 10365 10365 10368 10365 10364 10365 10361 10358 10359 10356 10345 10336 10334 10331 10322 10314 10308 10301 10293 10285 10278 10271 10264 10257 10251 10244 10237 10231 10224 10218 10213 10208 10204 10200 10196 10193 10189 10185 10182 10178 10174 10169 10166 10162 10158 10154 10151 10148 10144 10141 10138 10135 10132 10129 10127 10123 10120 10118 10116 10113 10109 10106
10414 10409 10408 10401 10394 10394 10392 10388 10386 10386 10393 10408 10411 10405 10402 10396 10386 10377 10370 10377 10390 10387 10371 10360 10354 10355 10357 10354 10352 10351 10346 10343 10345 10340 10327 10320 10321 10315 10304 10298 10292 10284 10276 10268 10261 10254 10248 10242 10237 10230 10223 10216 10210 10204 10198 10193 10190 10186 10183 10180 10176 10172 10169 10164 10160 10156 10151 10147 10143 10139 10135 10132 10129 10126 10123 10121 10118 10115 10112 10109 10106 10104 10101 10098 10096 10092
10401 10398 10396 10389 10382 10384 10382 10376 10374 10375 10383 10397 10399 10392 10387 10378 10370 10361 10351 10358 10375 10371 10352 10346 10347 10345 10344 10342 10339 10337 10332 10328 10328 10322 10311 10306 10305 10297 10288 10281 10275 10267 10260 10252 10245 10239 10233 10228 10222 10215 10208 10202 10196 10190 10185 10180 10176 10173 10170 10167 10163 10160 10156 10151 10147 10142 10137 10133 10129 10124 10121 10117 10114 10112 10109 10107 10104 10101 10098 10095 10092 10089 10087 10084 10082 10079
10389 10387 10384 10378 10374 10375 10371 10365 10363 10366 10375 10385 10384 10376 10370 10362 10355 10347 10338 10343 10352 10345 10336 10337 10336 10331 10330 10328 10324 10322 10317 10311 10310 10305 10297 10292 10287 10281 10273 10265 10257 10251 10244 10236 10230 10225 10220 10214 10208 10201 10195 10188 10182 10177 10171 10167 10163 10160 10157 10155 10151 10147 10142 10138 10133 10129 10124 10119 10115 10110 10107 10104 10101 10099 10096 10093 10091 10087 10084 10081 10078 10075 10073 10070 10067 10065
10378 10376 10371 10367 10365 10365 10361 10355 10351 10355 10369 10376 10365 10354 10350 10345 10338 10335 10331 10328 10324 10320 10321 10324 10321 10319 10318 10314 10311 10308 10302 10296 10293 10290 10284 10277 10270 10263 10256 10248 10241 10234 10227 10221 10215 10211 10205 10200 10194 10187 10180 10173 10168 10163 10158 10153 10151 10148 10145 10142 10138 10133 10129 10124 10120 10115 10110 10106 10102 10098 10095 10092 10089 10086 10083 10080 10077 10074 10070 10067 10064 10062 10059 10056 10054 10051
10368 10364 10358 10357 10358 10356 10351 10345 10340 10347 10365 10366 10344 10332 10334 10329 10321 10319 10318 10312 10306 10302 10303 10303 10304 10306 10304 10299 10297 10294 10288 10283 10280 10276 10271 10264 10255 10246 10239 10232 10226 10218 10211 10205 10200 10196 10191 10186 10179 10172 10165 10160 10154 10149 10145 10141 10138 10135 10132 10128 10124 10119 10115 10110 10105 10100 10096 10092 10088 10085 10083 10080 10076 10073 10070 10067 10063 10060 10057 10053 10051 10049 10046 10043 10041 10038
10355 10351 10347 10349 10350 10344 10337 10335 10333 10341 10354 10350 10330 10320 10318 10311 10304 10302 10300 10294 10290 10288 10287 10288 10290 10290 10286 10283 10280 10275 10273 10271 10265 10260 10255 10248 10240 10231 10223 10217 10211 10204 10196 10190 10185 10181 10177 10170 10164 10158 10152 10147 10142 10136 10133 10129 10125 10122 10118 10114 10109 10105 10100 10095 10090 10086 10082 10078 10075 10072 10069 10066 10063 10060 10057 10054 10051 10048 10044 10040 10038 10035 10032 10030 10028 10025
10339 10338 10337 10337 10336 10331 10326 10328 10330 10333 10336 10332 10322 10311 10300 10290 10287 10287 10281 10275 10272 10273 10276 10277 10275 10271 10267 10264 10260 10257 10257 10255 10248 10242 10235 10228 10222 10214 10207 10201 10195 10188 10181 10175 10169 10165 10161 10155 10150 10145 10140 10135 10129 10125 10121 10117 10112 10109 10105 10100 10096 10091 10085 10080 10075 10071 10068 10064 10061 10058 10056 10053 10050 10047 10044 10041 10038 10035 10032 10028 10025 10022 10019 10017 10015 10012
10323 10324 10326 10325 10324 10321 10318 10320 10322 10320 10317 10313 10306 10296 10283 10274 10271 10268 10262 10259 10258 10259 10262 10262 10258 10253 10248 10244 10242 10242 10241 10237 10231 10223 10215 10208 10203 10197 10190 10184 10177 10170 10164 10158 10153 10148 10145 10141 10138 10133 10127 10121 10116 10112 10108 10104 10100 10096 10092 10087 10083 10077 10072 10067 10062 10058 10054 10050 10047 10044 10042 10039 10036 10033 10030 10027 10024 10022 10018 10015 10012 10008 10005 10003 10001 9999
10310 10312 10313 10314 10314 10312 10310 10310 10307 10301 10298 10294 10287 10276 10267 10258 10253 10249 10245 10245 10245 10244 10244 10243 10239 10233 10228 10227 10228 10228 10225 10219 10212 10204 10196 10190 10186 10180 10173 10166 10158 10151 10145 10140 10136 10132 10130 10128 10125 10119 10113 10108 10103 10098 10094 10090 10087 10083 10079 10075 10070 10065 10060 10055 10050 10046 10041 10037 10034 10031 10029 10026 10022 10019 10016 10013 10011 10008 10005 10002 9999 9995 9992 9990 9988 9986
10300 10298 10298 10302 10303 10299 10296 10295 10291 10283 10279 10275 10266 10256 10250 10243 10236 10232 10229 10228 10229 10228 10225 10222 10217 10213 10213 10214 10214 10212 10206 10199 10192 10186 10180 10174 10169 10164 10157 10148 10141 10135 10129 10125 10122 10118 10116 10115 10110 10105 10100 10095 10090 10085 10081 10078 10074 10071 10067 10062 10057 10052 10047 10042 10038 10034 10029 10025 10022 10019 10016 10013 10009 10006 10003 10000 9998 9995 9992 9989 9986 9983 9980 9977 9975 9974
10288 10287 10288 10290 10289 10284 10281 10279 10273 10264 10257 10253 10247 10241 10234 10226 10219 10216 10214 10213 10214 10211 10206 10200 10197 10198 10202 10203 10199 10193 10187 10181 10175 10169 10163 10157 10152 10148 10141 10133 10126 10121 10117 10114 10111 10107 10104 10100 10096 10091 10087 10081 10076 10072 10069 10065 10062 10058 10054 10050 10044 10039 10035 10030 10026 10022 10018 10014 10011 10008 10004 10001 9998 9994 9991 9988 9985 9982 9980 9977 9974 9971 9968 9965 9964 9962
10276 10276 10278 10276 10271 10270 10268 10260 10249 10240 10237 10236 10232 10225 10218 10211 10205 10202 10200 10199 10197 10192 10186 10183 10185 10188 10190 10187 10181 10174 10169 10166 10159 10151 10144 10140 10136 10130 10124 10118 10114 10111 10108 10104 10099 10095 10091 10086 10081 10077 10073 10067 10063 10059 10056 10053 10050 10046 10042 10037 10032 10027 10022 10018 10015 10010 10006 10003 10000 9996 9993 9990 9987 9984 9980 9976 9973 9970 9967 9965 9962 9959 9956 9953 9951 9950
10260 10261 10263 10259 10256 10256 10251 10236 10221 10218 10221 10221 10215 10208 10203 10197 10192 10188 10185 10182 10177 10173 10171 10172 10175 10176 10174 10169 10163 10157 10153 10148 10140 10131 10126 10123 10118 10113 10108 10104 10101 10099 10096 10092 10087 10083 10078 10073 10068 10064 10059 10055 10051 10047 10045 10042 10039 10035 10031 10025 10020 10015 10010 10007 10003 9999 9995 9992 9989 9985 9982 9979 9976 9973 9969 9966 9962 9959 9956 9953 9950 9947 9945 9941 9938 9936
10243 10243 10244 10244 10243 10238 10229 10215 10203 10200 10203 10202 10197 10192 10187 10182 10177 10173 10169 10164 10161 10160 10159 10159 10161 10162 10159 10154 10148 10140 10133 10127 10121 10114 10110 10106 10102 10098 10094 10090 10087 10084 10081 10078 10075 10070 10065 10060 10055 10050 10046 10042 10039 10036 10034 10031 10027 10023 10019 10013 10008 10004 9999 9995 9992 9987 9983 9980 9977 9975 9972 9968 9964 9962 9958 9955 9952 9949 9946 9942 9937 9933 9931 9930 9928 9924